sat.trackr.live / text

‹ back to catalog

STARLINK-11347 [DTC]

NORAD 63054 · 2025-035C

PAYLOAD ACTIVE UNKNOWN

§ Identity

Operator
Country
US
Launch date
2025-02-21
Launch site
AFETR
Launch vehicle
Mass (kg)
RCS (m²)

Purposes: comms

External: N2YO · Heavens-Above · Gunter

§ Orbital elements

Epoch: 2026-05-24T18:35:41.831808Z

Period
91.66 min
Inclination
43.0009°
Eccentricity
0.0001175
Mean motion
15.70957792 rev/d
Perigee alt
355.4 km
Apogee alt
356.9 km
Semi-major
6,734.3 km
B*
1.5432e-3
RAAN
277.0315°
Arg perigee
41.8416°
Mean anomaly
318.2541°
Rev number
7,318

§ Raw data

STARLINK-11347 [DTC]1 63054U 25035C   26144.77478972  .00203497  00000+0  15432-2 0  99922 63054  43.0009 277.0315 0001175  41.8416 318.2541 15.70957792 73184

JSON: /api/v1/satellites/63054 · /tle

For live sub-satellite position, see the globe view (requires WebGL).

§ Visibility from observer

Set your observer location to see the next 7 days of passes ≥ 10°. The values pass through the URL so the page stays shareable.

No JS? Fill the form by hand. The geolocation button needs JavaScript.